Simultaneous Nadir Overpasses (SNOs) Predictions

Prediction of SNOs between AQUA and GOES-15 Satellite Orbit:

Table of predicted SNOs for the next 14.0 days since TLE Epoch: 6/21/2019
Index Date Time (AQUA) AQUA Lat,Lon GOES-15 Lat,Lon Distance(km) Time Diff (sec)
1 06/22/2019 10:25:26 0.80,-132.34 -0.09,-128.13 478.82 80
2 06/23/2019 21:51:59 0.90,-124.23 0.06,-128.09 439.73 80
3 06/24/2019 10:13:14 0.20,-129.38 -0.08,-128.08 148.45 80
4 06/26/2019 10:01:02 -0.40,-126.42 -0.08,-128.02 181.56 80
5 06/26/2019 22:22:27 -0.67,-131.62 0.10,-128.00 411.61 80
6 06/28/2019 22:10:15 -0.06,-128.66 0.10,-127.94 82.23 80
7 06/30/2019 21:58:03 0.55,-125.70 0.10,-127.87 246.25 80
8 07/01/2019 10:19:19 0.51,-130.86 -0.12,-127.86 341.68 80
9 07/03/2019 10:07:07 -0.09,-127.90 -0.13,-127.78 14.28 80
10 07/05/2019 09:54:55 -0.70,-124.94 -0.12,-127.69 312.63 80




NCC Satellite Simultaneous Nadir Overpasses (SNOs) Prediction Service
